Hourly Data Report for October 15, 2021

SHEARWATER RCS
NOVA SCOTIA
Current Station Operator: ECCC - MSC

44°37'47.000" N
63°30'48.000" W
24.00 m
8205092
71264
AAW

Download Data

Hourly Data (October 2021)
Hourly Data Report for October 15, 2021
TIME
LST
Temp Definition
°C
Dew Point Definition
°C
Rel Hum Definition
%
Precip. Amount Definition
mm

Wind Dir Definition
10's deg

Wind Spd Definition
km/h
Visibility Definition
km
Stn Press Definition
kPa
Hmdx Definition


Wind Chill Definition


Weather Definition


00:00 12.1 10.5 90 0.0 33 7   100.98     LegendNANA
01:00 12.0 10.5 91 0.0 32 8   100.97     LegendNANA
02:00 11.9 10.3 90 0.0 34 8   100.97     LegendNANA
03:00 11.8 10.0 89 0.0 34 8   100.98     LegendNANA
04:00 11.6 9.7 88 0.0 35 11   101.00     LegendNANA
05:00 10.8 9.2 90 0.0 34 14   101.06     LegendNANA
06:00 9.8 8.6 92 0.0 34 8   101.08     LegendNANA
07:00 8.9 7.8 92 0.0 31 5   101.08     LegendNANA
08:00 10.4 8.2 86 0.0 31 6   101.13     LegendNANA
09:00 12.3 8.5 78 0.0 32 8   101.13     LegendNANA
10:00 12.7 7.7 71 0.0 35 13   101.14     LegendNANA
11:00 13.6 7.9 69 0.0 34 12   101.13     LegendNANA
12:00 15.1 7.7 61 0.0 36 9   101.12     LegendNANA
13:00 15.1 8.4 64 0.0 36 7   101.02     LegendNANA
14:00 15.6 8.3 62 0.0 33 10   101.02     LegendNANA
15:00 16.1 8.3 60 0.0 32 12   101.03     LegendNANA
16:00 15.0 8.1 63 0.0 32 9   101.08     LegendNANA
17:00 14.4 8.5 68 0.0 32 8   101.09     LegendNANA
18:00 12.5 8.4 76 0.0 34 6   101.11     LegendNANA
19:00 11.7 8.3 80 0.0 34 7   101.17     LegendNANA
20:00 11.1 8.2 82 0.0 35 7   101.19     LegendNANA
21:00 10.9 8.1 82 0.0 35 7   101.18     LegendNANA
22:00 9.9 8.2 89 0.0 32 6   101.18     LegendNANA
23:00 8.3 7.4 94 0.0 24 2   101.17     LegendNANA

Notes on Data Quality.

Legend

  • E = Estimated
  • M = Missing
  • NA = Not Available*
  • [empty] = Indicates an unobserved value
Date modified: